Powrót do katalogu

BEIDOU 3M15

AktywnyNawigacjaMEO
NORAD 43647·PAYLOAD·🇨🇳 China

Wystrzelony Oct 15, 2018 z Xichang Satellite Launch Center

Loading…

Następne Przeloty (najbliższe 24 godziny)

TLE

ŚwieżeSource: CelesTrak SupGP

Epoka: Sep 12, 2026, 00:00 UTC

1 43647C 18078A   26255.00000000  .00000000  00000+0  00000+0 0  2551
2 43647  54.0085 296.9343 0006118  30.9231 325.6845  1.86232593    11

Śledź BEIDOU 3M15 w czasie rzeczywistym z AllMySat

Download on the App Store